Weather History for KMMH - July, 2013

Change the Weather History Date:

Sunday, July 21, 2013

  Actual Average (KBIH) Record (KBIH)
Temperature  
Mean Temperature 73 °F 78 °F  
Max Temperature 93 °F 99 °F 106 °F (1981)
Min Temperature 53 °F 57 °F 44 °F (1999)
Degree Days  
Heating Degree Days 0 0  
Month to date heating degree days 0  
Since 1 June heating degree days 19  
Since 1 July heating degree days 0  
Cooling Degree Days 8 13  
Month to date cooling degree days 256  
Year to date cooling degree days 538  
Since 1 June cooling degree days 470  
Growing Degree Days 23 (Base 50)    
Moisture  
Dew Point 38 °F    
Average Humidity 33    
Maximum Humidity 72    
Minimum Humidity 11    
Precipitation  
Precipitation 0.08 in 0.01 in 0.38 in (1984)
Month to date precipitation 0.12  
Year to date precipitation 3.19  
Snow  
Snow 0.00 in 0.00 in - ()
Month to date snowfall 0.0  
Since 1 June snowfall 0.0  
Since 1 July snowfall 0.0  
Snow Depth -    
Sea Level Pressure  
Sea Level Pressure 30.21 in    
Wind  
Wind Speed 5 mph (South)    
Max Wind Speed 17 mph    
Max Gust Speed 32 mph    
Visibility 10 miles    
Events Rain    
T = Trace of Precipitation, MM = Missing Value Source: NWS Daily Summary

Daily Weather History Graph

Daily Weather History Graph

Search for Another Location

Airport or City:

Trip Planner

Search our weather history database for the weather conditions in past years. The results will help you decide how hot, cold, wet, or windy it might be!

Date:

Astronomy

Jul. 21, 2013 Rise Set
Actual Time 5:50 AM PDT 8:12 PM PDT
Civil Twilight 5:20 AM PDT 8:42 PM PDT
Nautical Twilight 4:43 AM PDT 9:19 PM PDT
Astronomical Twilight 4:03 AM PDT 9:59 PM PDT
Moon 7:15 PM PDT (7/21) 4:41 AM PDT (7/21)
Length of Visible Light 15h 21m
Length of Day
14h 22m
Waxing Gibbous, 99% of the Moon is Illuminated
Jul 21
Waxing Gibbous
Jul 22
Full
Jul 29
Last Quarter
Aug 6
New
Aug 14
First Quarter

Hourly Weather History & Observations

Time (PDT) Temp. Dew Point Humidity Pressure Visibility Wind Dir Wind Speed Gust Speed Precip Events Conditions
12:15 AM 62.6 °F 33.8 °F 34% 30.22 in 10.0 mi NNW 3.5 mph - N/A   Clear
12:55 AM 62.6 °F 33.8 °F 34% 30.22 in 10.0 mi Calm Calm - N/A   Clear
1:35 AM 57.2 °F 33.8 °F 41% 30.22 in 10.0 mi Calm Calm - N/A   Clear
1:55 AM 57.2 °F 33.8 °F 41% 30.22 in 10.0 mi NNW 3.5 mph - N/A   Clear
2:15 AM 57.2 °F 35.6 °F 44% 30.21 in 10.0 mi North 4.6 mph - N/A   Clear
3:15 AM 57.2 °F 33.8 °F 41% 30.22 in 10.0 mi NNW 3.5 mph - N/A   Clear
3:55 AM 55.4 °F 33.8 °F 44% 30.21 in 10.0 mi NW 4.6 mph - N/A   Clear
4:35 AM 53.6 °F 33.8 °F 47% 30.21 in 10.0 mi Calm Calm - N/A   Clear
4:55 AM 55.4 °F 35.6 °F 47% 30.21 in 10.0 mi North 5.8 mph - N/A   Clear
5:15 AM 55.4 °F 35.6 °F 47% 30.21 in 10.0 mi Calm Calm - N/A   Clear
6:55 AM 55.4 °F 35.6 °F 47% 30.23 in 10.0 mi Calm Calm - N/A   Clear
8:15 AM 68.0 °F 37.4 °F 33% 30.24 in 10.0 mi Calm Calm - N/A   Clear
8:55 AM 75.2 °F 39.2 °F 27% 30.24 in 10.0 mi ESE 6.9 mph - N/A   Clear
9:15 AM 75.2 °F 39.2 °F 27% 30.23 in 10.0 mi SE 4.6 mph - N/A   Clear
9:35 AM 77.0 °F 37.4 °F 24% 30.22 in 10.0 mi Calm Calm - N/A   Clear
9:55 AM 78.8 °F 35.6 °F 21% 30.23 in 10.0 mi Calm Calm - N/A   Clear
10:15 AM 82.4 °F 35.6 °F 19% 30.22 in 10.0 mi Calm Calm - N/A   Clear
11:35 AM 87.8 °F 32.0 °F 14% 30.21 in 10.0 mi East 11.5 mph 20.7 mph N/A   Clear
11:55 AM 89.6 °F 32.0 °F 13% 30.21 in 10.0 mi ESE 6.9 mph - N/A   Clear
12:15 PM 89.6 °F 32.0 °F 13% 30.20 in 10.0 mi ESE 8.1 mph - N/A   Clear
12:35 PM 91.4 °F 32.0 °F 12% 30.20 in 10.0 mi ESE 8.1 mph - N/A   Scattered Clouds
12:55 PM 93.2 °F 32.0 °F 11% 30.19 in 10.0 mi SSE 10.4 mph 16.1 mph N/A   Scattered Clouds
1:15 PM 93.2 °F 32.0 °F 11% 30.19 in 10.0 mi SSE 13.8 mph 24.2 mph N/A   Scattered Clouds
1:35 PM 87.8 °F 32.0 °F 14% 30.18 in 10.0 mi SE 10.4 mph 18.4 mph N/A   Scattered Clouds
1:55 PM 89.6 °F 32.0 °F 13% 30.19 in 10.0 mi South 13.8 mph - N/A   Clear
2:15 PM 86.0 °F 28.4 °F 12% 30.19 in 10.0 mi SE 11.5 mph 26.5 mph N/A   Scattered Clouds
2:35 PM 87.8 °F 28.4 °F 12% 30.18 in 10.0 mi SE 11.5 mph 20.7 mph N/A   Clear
2:55 PM 89.6 °F 30.2 °F 12% 30.18 in 10.0 mi South 5.8 mph - N/A   Scattered Clouds
3:15 PM 86.0 °F 32.0 °F 14% 30.19 in 10.0 mi ESE 15.0 mph 23.0 mph N/A   Mostly Cloudy
3:35 PM 82.4 °F 30.2 °F 15% 30.21 in 10.0 mi ESE 9.2 mph 32.2 mph N/A   Overcast
3:55 PM 82.4 °F 30.2 °F 15% 30.18 in 10.0 mi South 13.8 mph 26.5 mph N/A   Mostly Cloudy
4:15 PM 84.2 °F 28.4 °F 13% 30.17 in 10.0 mi South 13.8 mph - N/A   Scattered Clouds
4:35 PM 87.8 °F 30.2 °F 13% 30.16 in 10.0 mi South 11.5 mph 19.6 mph N/A   Clear
4:55 PM 87.8 °F 30.2 °F 13% 30.16 in 10.0 mi SSE 5.8 mph - N/A   Clear
5:35 PM 86.0 °F 32.0 °F 14% 30.16 in 10.0 mi WNW 11.5 mph 16.1 mph N/A   Clear
5:55 PM 86.0 °F 32.0 °F 14% 30.16 in 10.0 mi Calm Calm - N/A   Clear
6:15 PM 84.2 °F 32.0 °F 15% 30.15 in 10.0 mi Calm Calm - N/A   Scattered Clouds
6:35 PM 86.0 °F 35.6 °F 17% 30.16 in 10.0 mi WNW 9.2 mph - N/A   Scattered Clouds
6:55 PM 82.4 °F 41.0 °F 23% 30.17 in 10.0 mi NW 11.5 mph 17.3 mph N/A   Scattered Clouds
7:15 PM 80.6 °F 42.8 °F 26% 30.19 in 10.0 mi North 5.8 mph - N/A   Mostly Cloudy
7:35 PM 69.8 °F 48.2 °F 46% 30.20 in 2.5 mi WSW 17.3 mph 24.2 mph 0.08 in Rain Light Rain
7:55 PM 68.0 °F 51.8 °F 56% 30.20 in 10.0 mi South 11.5 mph - 0.08 in   Scattered Clouds
8:15 PM 69.8 °F 53.6 °F 56% 30.20 in 10.0 mi East 5.8 mph - N/A   Scattered Clouds
8:35 PM 68.0 °F 53.6 °F 60% 30.21 in 10.0 mi West 11.5 mph - N/A   Scattered Clouds
8:55 PM 68.0 °F 51.8 °F 56% 30.22 in 10.0 mi West 10.4 mph - N/A   Scattered Clouds
9:15 PM 64.4 °F 50.0 °F 59% 30.24 in 10.0 mi West 8.1 mph - N/A   Clear
9:35 PM 64.4 °F 51.8 °F 64% 30.26 in 10.0 mi SSE 6.9 mph - N/A   Clear
9:55 PM 64.4 °F 50.0 °F 59% 30.26 in 10.0 mi WSW 9.2 mph - N/A   Clear
10:15 PM 62.6 °F 51.8 °F 68% 30.27 in 10.0 mi Calm Calm - N/A   Clear
10:35 PM 66.2 °F 50.0 °F 56% 30.28 in 10.0 mi Calm Calm - N/A   Clear
10:55 PM 64.4 °F 50.0 °F 59% 30.28 in 10.0 mi WNW 9.2 mph - N/A   Clear
11:15 PM 62.6 °F 51.8 °F 68% 30.28 in 10.0 mi North 4.6 mph - N/A   Clear
11:35 PM 60.8 °F 51.8 °F 72% 30.27 in 10.0 mi WNW 6.9 mph - N/A   Clear
11:55 PM 60.8 °F 51.8 °F 72% 30.25 in 10.0 mi Calm Calm - N/A   Clear